Location: Newark
(40.7066°N, 111.8219°W)
Time: 22:36:00
(UTC+00:00)

A-11 Canister half - All Passes

Search period start: 20 November 2019 00:00
Search period end: 30 November 2019 00:00
Orbit: 1514 x 1685 km, 47.2° (Epoch: 19 November)

Date Brightness Start Highest point End Pass type
(mag) Time Alt. Az. Time Alt. Az. Time Alt. Az.
20 Nov - 01:55:50 10° WSW 02:05:59 79° NNW 02:16:14 10° ENE visible
20 Nov - 04:02:00 10° WNW 04:12:05 60° N 04:22:05 10° E visible
20 Nov - 06:07:48 10° WNW 06:18:04 84° NNE 06:28:04 10° ESE visible
20 Nov - 08:13:24 10° WNW 08:22:34 41° SW 08:31:29 10° SSE night (unlit)
20 Nov - 23:29:05 10° SSW 23:38:19 45° SE 23:47:46 10° ENE daylight
21 Nov - 01:32:51 10° WSW 01:42:59 81° NNW 01:53:15 10° ENE visible
21 Nov - 03:38:59 10° W 03:49:03 60° N 03:59:04 10° E visible
21 Nov - 05:44:49 10° WNW 05:55:05 82° NNE 06:05:07 10° ESE visible
21 Nov - 07:50:22 10° WNW 07:59:41 44° SW 08:08:45 10° SSE night (unlit)
21 Nov - 23:06:21 10° SSW 23:15:27 42° SE 23:24:44 10° ENE daylight
22 Nov - 01:09:54 10° WSW 01:20:01 83° NNW 01:30:17 10° ENE visible
22 Nov - 03:15:58 10° W 03:26:01 60° N 03:36:04 10° ENE visible
22 Nov - 05:21:50 10° WNW 05:32:06 80° NNE 05:42:10 10° ESE visible
22 Nov - 07:27:20 10° WNW 07:36:48 46° SW 07:46:01 10° SSE night (unlit)
22 Nov - 09:38:40 10° WSW 09:39:49 10° WSW 09:40:59 10° SW night (unlit)
22 Nov - 22:43:38 10° SSW 22:52:34 40° SE 23:01:42 10° ENE daylight
23 Nov - 00:46:57 10° WSW 00:57:02 86° NNW 01:07:18 10° ENE visible
23 Nov - 02:52:56 10° W 03:03:00 61° N 03:13:03 10° ENE visible
23 Nov - 04:58:51 10° WNW 05:09:07 77° NNE 05:19:12 10° ESE visible
23 Nov - 07:04:19 10° WNW 07:13:55 49° SW 07:23:15 10° SSE night (unlit)
23 Nov - 09:13:59 10° WSW 09:17:01 12° WSW 09:20:03 10° SW night (unlit)
23 Nov - 22:20:57 10° SSW 22:29:42 37° SE 22:38:39 10° ENE daylight
24 Nov - 00:24:00 10° WSW 00:34:04 89° NNW 00:44:20 10° ENE visible
24 Nov - 02:29:55 10° W 02:39:58 61° N 02:50:02 10° ENE visible
24 Nov - 04:35:53 10° WNW 04:46:08 75° NNE 04:56:14 10° ESE visible
24 Nov - 06:41:19 10° WNW 06:51:01 52° SW 07:00:30 10° SSE visible
24 Nov - 08:50:07 10° W 08:54:13 13° WSW 08:58:17 10° SW night (unlit)
24 Nov - 21:58:17 10° SSW 22:06:50 35° SE 22:15:35 10° ENE daylight
25 Nov - 00:01:05 10° WSW 00:11:06 89° SSE 00:21:21 10° ENE daylight
25 Nov - 02:06:54 10° W 02:16:56 61° N 02:27:01 10° ENE visible
25 Nov - 04:12:53 10° WNW 04:23:08 73° NNE 04:33:14 10° ESE visible
25 Nov - 06:18:19 10° WNW 06:28:07 55° SW 06:37:42 10° SSE visible
25 Nov - 08:26:31 10° W 08:31:24 15° WSW 08:36:15 10° SSW night (unlit)
25 Nov - 21:35:38 10° S 21:43:59 33° SE 21:52:30 10° ENE daylight
25 Nov - 23:38:09 10° WSW 23:48:08 86° SSE 23:58:22 10° ENE daylight
26 Nov - 01:43:54 10° W 01:53:54 62° N 02:04:00 10° ENE visible
26 Nov - 03:49:55 10° WNW 04:00:08 72° NNE 04:10:15 10° ESE visible
26 Nov - 05:55:19 10° WNW 06:05:12 58° SW 06:14:54 10° SE visible
26 Nov - 08:03:03 10° W 08:08:36 16° WSW 08:14:05 10° SSW night (unlit)
26 Nov - 21:13:01 10° S 21:21:08 30° SE 21:29:25 10° ENE daylight
26 Nov - 23:15:15 10° SW 23:25:11 83° SSE 23:35:24 10° ENE daylight
27 Nov - 01:20:53 10° W 01:30:53 62° N 01:41:00 10° ENE visible
27 Nov - 03:26:55 10° WNW 03:37:07 70° NNE 03:47:15 10° E visible
27 Nov - 05:32:19 10° WNW 05:42:17 61° SW 05:52:04 10° SE visible
27 Nov - 07:39:41 10° W 07:45:46 18° WSW 07:51:49 10° SSW night (unlit)
27 Nov - 20:50:26 10° S 20:58:17 28° SE 21:06:18 10° ENE daylight
27 Nov - 22:52:21 10° SW 23:02:14 80° SSE 23:12:25 10° ENE daylight
28 Nov - 00:57:52 10° W 01:07:51 63° N 01:17:59 10° ENE visible
28 Nov - 03:03:56 10° WNW 03:14:07 68° NNE 03:24:14 10° E visible
28 Nov - 05:09:21 10° WNW 05:19:22 65° SW 05:29:14 10° SE visible
28 Nov - 07:16:23 10° W 07:22:57 20° SW 07:29:27 10° SSW night (unlit)
28 Nov - 20:27:53 10° S 20:35:27 26° SE 20:43:11 10° ENE daylight
28 Nov - 22:29:28 10° SW 22:39:18 76° SSE 22:49:26 10° ENE daylight
29 Nov - 00:34:53 10° W 00:44:50 64° N 00:54:58 10° ENE visible
29 Nov - 02:40:58 10° WNW 02:51:06 67° NNE 03:01:14 10° E visible
29 Nov - 04:46:22 10° WNW 04:56:27 68° SW 05:06:22 10° SE visible
29 Nov - 06:53:07 10° W 07:00:07 22° SW 07:07:02 10° S visible
29 Nov - 20:05:22 10° S 20:12:37 24° SE 20:20:01 10° ENE daylight
29 Nov - 22:06:36 10° SW 22:16:22 73° SE 22:26:27 10° ENE daylight
